Date String (YYYY-MM-DD hh:mm:ss) UTC,Instrument flags,Ambient pressure (hPa),Sample flow (lpm),Bypass flow (lpm),Sample temperature (°C),Ambient temperature (°C),ASC tube jacket temperature (°C),LED temperature (°C),Box temperature (°C),Sample RH (%),Span deviation,Mass concentration (μg/m³),Mass concentration (μg/m³),Mass concentration (μg/m³)
DateTimeUTC,F1_M11,P_M11,Q1_M11,Q2_M11,T1_M11,T2_M11,T3_M11,T4_M11,T5_M11,U1_M11,ZSPAN_M11,X2_M11,X0_M11,X1_M11
2021-09-23 03:00:00,,0830.4,5.01,0.00,29.6,28.3,00.0,38.7,31.4,10.3,0000.0,0002.80,0011.33,0001.50
2021-09-23 03:01:00,,0830.4,4.99,0.00,29.6,28.4,00.0,38.7,31.4,10.3,0000.0,0002.84,0010.93,0001.51
2021-09-23 03:02:00,,0830.4,5.02,0.00,29.7,28.5,00.0,38.7,31.5,10.4,0000.0,0002.87,0010.72,0001.51
2021-09-23 03:03:00,,0830.4,5.00,0.00,29.7,28.6,00.0,38.7,31.5,10.4,0000.0,0002.96,0010.04,0001.50
2021-09-23 03:04:00,,0830.4,5.01,0.00,29.7,28.7,00.0,38.7,31.5,10.4,0000.0,0002.98,0009.79,0001.52
2021-09-23 03:05:00,,0830.5,5.00,0.00,29.7,28.7,00.0,38.7,31.6,10.4,0000.0,0002.93,0009.72,0001.51
2021-09-23 03:06:00,,0830.4,4.99,0.00,29.8,28.8,00.0,38.8,31.6,10.4,0000.0,0002.96,0009.73,0001.51
2021-09-23 03:07:00,,0830.4,5.00,0.00,29.8,28.8,00.0,38.8,31.6,10.4,0000.0,0002.99,0008.76,0001.53
2021-09-23 03:08:00,,0830.4,5.01,0.00,29.8,28.9,00.0,38.8,31.7,10.3,0000.0,0002.98,0008.69,0001.54
2021-09-23 03:09:00,,0830.4,5.00,0.00,29.8,29.0,00.0,38.8,31.7,10.3,0000.0,0002.92,0008.35,0001.54
2021-09-23 03:10:00,,0830.5,5.00,0.00,29.9,29.0,00.0,38.8,31.7,10.2,0000.0,0002.88,0008.22,0001.53
2021-09-23 03:11:00,,0830.4,5.01,0.00,29.9,29.0,00.0,38.8,31.7,10.1,0000.0,0002.84,0008.20,0001.54
2021-09-23 03:12:00,,0830.4,4.99,0.00,29.9,29.0,00.0,38.9,31.7,10.1,0000.0,0002.86,0008.67,0001.55
2021-09-23 03:13:00,,0830.3,4.99,0.00,29.9,29.1,00.0,38.9,31.8,10.2,0000.0,0002.90,0009.27,0001.57
2021-09-23 03:14:00,,0830.4,5.02,0.00,30.0,29.1,00.0,38.9,31.8,10.3,0000.0,0002.93,0009.45,0001.57
2021-09-23 03:15:00,,0830.4,4.99,0.00,30.0,29.2,00.0,38.9,31.8,10.3,0000.0,0002.97,0009.60,0001.57
2021-09-23 03:16:00,,0830.4,4.99,0.00,30.0,29.2,00.0,39.0,31.8,10.3,0000.0,0003.05,0010.11,0001.58
2021-09-23 03:17:00,,0830.4,5.00,0.00,30.0,27.8,00.0,39.0,31.5,10.3,0000.0,0003.06,0010.87,0001.58
2021-09-23 03:18:00,,0830.3,5.00,0.00,29.8,26.1,00.0,38.9,31.0,10.3,0000.0,0003.09,0011.47,0001.58
2021-09-23 03:19:00,,0830.3,5.00,0.00,29.7,26.1,00.0,38.9,31.0,10.4,0000.0,0003.15,0011.90,0001.58
2021-09-23 03:20:00,,0830.3,5.00,0.00,29.6,26.5,00.0,38.9,31.1,10.4,0000.0,0003.23,0013.17,0001.58
2021-09-23 03:21:00,,0830.3,4.99,0.00,29.6,26.9,00.0,38.8,31.1,10.4,0000.0,0003.22,0013.66,0001.59
2021-09-23 03:22:00,,0830.2,4.99,0.00,29.5,27.3,00.0,38.8,31.2,10.4,0000.0,0003.24,0014.74,0001.58
2021-09-23 03:23:00,,0830.2,5.01,0.00,29.5,27.6,00.0,38.8,31.2,10.4,0000.0,0003.22,0014.80,0001.58
2021-09-23 03:24:00,,0830.3,4.99,0.00,29.6,27.8,00.0,38.7,31.3,10.4,0000.0,0003.18,0014.02,0001.58
2021-09-23 03:25:00,,0830.2,5.01,0.00,29.6,28.0,00.0,38.7,31.3,10.4,0000.0,0003.14,0013.83,0001.58
2021-09-23 03:26:00,,0830.3,4.99,0.00,29.6,28.2,00.0,38.7,31.4,10.4,0000.0,0003.11,0013.93,0001.56
2021-09-23 03:27:00,,0830.3,5.00,0.00,29.6,28.3,00.0,38.7,31.4,10.4,0000.0,0003.12,0013.55,0001.56
2021-09-23 03:28:00,,0830.2,5.01,0.00,29.6,28.4,00.0,38.7,31.4,10.4,0000.0,0003.12,0013.03,0001.55
2021-09-23 03:29:00,,0830.2,4.99,0.00,29.7,28.5,00.0,38.7,31.4,10.4,0000.0,0003.10,0012.92,0001.56
2021-09-23 03:30:00,,0830.2,5.00,0.00,29.7,28.6,00.0,38.7,31.5,10.4,0000.0,0003.04,0012.75,0001.56
2021-09-23 03:31:00,,0830.3,5.01,0.00,29.7,28.7,00.0,38.8,31.5,10.4,0000.0,0003.06,0011.87,0001.57
2021-09-23 03:32:00,,0830.1,4.98,0.00,29.7,28.7,00.0,38.8,31.5,10.4,0000.0,0003.11,0012.20,0001.56
2021-09-23 03:33:00,,0830.1,5.01,0.00,29.8,28.8,00.0,38.8,31.6,10.4,0000.0,0003.09,0010.88,0001.57
2021-09-23 03:34:00,,0830.1,5.00,0.00,29.8,28.8,00.0,38.8,31.6,10.3,0000.0,0003.14,0010.95,0001.57
2021-09-23 03:35:00,,0830.1,5.01,0.00,29.8,28.8,00.0,38.8,31.6,10.3,0000.0,0003.16,0011.35,0001.57
2021-09-23 03:36:00,,0830.1,4.99,0.00,29.8,28.8,00.0,38.8,31.6,10.2,0000.0,0003.17,0011.58,0001.55
2021-09-23 03:37:00,,0830.1,5.01,0.00,29.8,28.8,00.0,38.8,31.6,10.2,0000.0,0003.17,0011.38,0001.56
2021-09-23 03:38:00,,0830.1,4.99,0.00,29.9,28.8,00.0,38.9,31.7,10.1,0000.0,0003.18,0012.07,0001.55
2021-09-23 03:39:00,,0830.1,5.00,0.00,29.9,28.8,00.0,38.9,31.7,10.1,0000.0,0003.20,0012.17,0001.54
2021-09-23 03:40:00,,0830.1,4.99,0.00,29.9,28.9,00.0,38.9,31.7,10.1,0000.0,0003.22,0012.34,0001.52
2021-09-23 03:41:00,,0830.2,5.00,0.00,29.9,28.9,00.0,38.9,31.7,10.0,0000.0,0003.23,0012.68,0001.51
2021-09-23 03:42:00,,0830.1,4.99,0.00,29.9,28.9,00.0,38.9,31.7,10.1,0000.0,0003.19,0013.31,0001.49
2021-09-23 03:43:00,,0830.1,5.01,0.00,30.0,28.9,00.0,39.0,31.8,10.0,0000.0,0003.17,0012.57,0001.49
2021-09-23 03:44:00,,0830.1,5.01,0.00,30.0,29.0,00.0,39.0,31.8,10.0,0000.0,0003.16,0012.39,0001.48
2021-09-23 03:45:00,,0830.1,4.98,0.00,30.0,29.0,00.0,39.0,31.7,10.0,0000.0,0003.17,0012.45,0001.47
2021-09-23 03:46:00,,0830.1,5.00,0.00,30.0,29.0,00.0,39.0,31.8,10.0,0000.0,0003.20,0013.05,0001.48
2021-09-23 03:47:00,,0830.1,5.01,0.00,30.0,29.0,00.0,39.0,31.8,10.0,0000.0,0003.23,0013.41,0001.49
2021-09-23 03:48:00,,0830.1,4.99,0.00,30.1,29.0,00.0,39.0,31.8,10.0,0000.0,0003.25,0014.00,0001.49
2021-09-23 03:49:00,,0830.1,5.00,0.00,30.1,29.0,00.0,39.1,31.8,10.0,0000.0,0003.23,0013.88,0001.50
2021-09-23 03:50:00,,0830.0,5.01,0.00,30.0,27.9,00.0,39.1,31.5,10.0,0000.0,0003.20,0014.77,0001.49
2021-09-23 03:51:00,,0830.0,4.99,0.00,29.9,26.0,00.0,39.0,31.0,10.0,0000.0,0003.17,0014.90,0001.50
2021-09-23 03:52:00,,0829.9,5.02,0.00,29.7,26.0,00.0,39.0,31.0,10.0,0000.0,0003.19,0014.66,0001.50
2021-09-23 03:53:00,,0829.9,4.99,0.00,29.6,26.4,00.0,38.9,31.0,10.1,0000.0,0003.19,0014.58,0001.50
2021-09-23 03:54:00,,0829.9,5.00,0.00,29.6,26.8,00.0,38.9,31.1,10.2,0000.0,0003.19,0015.39,0001.49
2021-09-23 03:55:00,,0829.9,5.01,0.00,29.6,27.2,00.0,38.8,31.2,10.2,0000.0,0003.16,0015.70,0001.49
2021-09-23 03:56:00,,0829.9,4.99,0.00,29.6,27.5,00.0,38.8,31.2,10.3,0000.0,0003.15,0015.17,0001.49
2021-09-23 03:57:00,,0829.9,5.01,0.00,29.6,27.8,00.0,38.8,31.2,10.3,0000.0,0003.18,0014.40,0001.49
2021-09-23 03:58:00,,0829.8,5.00,0.00,29.6,28.0,00.0,38.8,31.3,10.2,0000.0,0003.14,0013.60,0001.50
2021-09-23 03:59:00,,0829.8,5.00,0.00,29.6,28.1,00.0,38.8,31.3,10.2,0000.0,0003.15,0013.02,0001.50
